Home   Weather   Montes Claros   Past weeks

Flag for Brazil Past Weather in Montes Claros, Minas Gerais, Brazil — Yesterday and Last 2 Weeks

Now
66 °F

Light rain. Fog.


Feels Like: 66 °F
Forecast: 69 / 82 °F
Wind: 10 mph from Northeast

Location: Belo Horizonte Airport

Current Time: Jan 16, 2017 at 1:13:29 pm

Latest Report: Jan 16, 2017 at 12:00 pm


Visibility: 1 mi

Pressure: N/A

Humidity: 94%

Dew Point: 64 °F

Location of Montes ClarosLocation

Past Weather in Montes Claros — Graph

°F

Montes Claros Temperature Yesterday

Maximum temperature yesterday: 77 °F (at 5:00 pm)
Minimum temperature yesterday: 46 °F (at 5:00 am)
Average temperature yesterday: 69 °F

High & Low Weather Summary for the Past Weeks

 TemperatureHumidityPressure
High91 °F (Jan 2, 4:00 pm)100% (Jan 14, 9:19 am)30.12 "Hg (Jan 14, 9:19 am)
Low46 °F (Jan 15, 5:00 am)27% (Jan 3, 6:00 pm)29.86 "Hg (Jan 14, 5:00 pm)
Average76 °F64%30.01 "Hg
* Reported Jan 1 12:00 pm — Jan 16 12:00 pm, Montes Claros, Weather by CustomWeather, © 2017

Note: Actual official high and low records may vary slightly from our data, if they occured in-between our weather recording intervals... More about our weather records

Advertising

Montes Claros Weather History for the Previous 24 Hours

Scroll right to see more
 ConditionsComfort  
Time TempWeatherWind HumidityBarometerVisibility
12:00 pm
Mon, Jan 16
66 °FLight rain. Fog.10 mph94%N/A1 mi
11:00 am68 °FPartly sunny.6 mph83%30.09 "HgN/A
10:00 am66 °FLight rain. Broken clouds.14 mph94%30.09 "Hg4 mi
9:00 am68 °FFog.9 mph94%30.07 "Hg3 mi
8:27 am68 °FFog.8 mph94%30.07 "Hg2 mi
8:00 am68 °FLight rain. Fog.8 mph88%30.07 "Hg3 mi
7:00 am68 °FBroken clouds.5 mph94%30.04 "Hg4 mi
6:00 am68 °FPassing clouds.3 mph94%30.01 "HgN/A
5:00 am68 °FLight rain. Partly cloudy.2 mph88%30.01 "HgN/A
4:00 am68 °FPartly cloudy.9 mph88%30.01 "HgN/A
3:00 am68 °FPassing clouds.6 mph94%30.01 "HgN/A
2:00 am70 °FClear.8 mph83%30.01 "Hg10 mi
1:00 am70 °FClear.9 mph83%30.01 "Hg10 mi
12:00 am72 °FClear.8 mph78%30.01 "Hg10 mi
11:00 pm
Sun, Jan 15
72 °FPartly cloudy.6 mph78%30.01 "HgN/A
10:00 pm72 °FPartly cloudy.7 mph78%30.01 "HgN/A
7:00 pm75 °FBroken clouds.8 mph69%29.95 "HgN/A
6:00 pm75 °FBroken clouds.5 mph65%29.92 "HgN/A
5:00 pm77 °FBroken clouds.3 mph65%29.95 "HgN/A
4:00 pm75 °FBroken clouds.2 mph65%29.95 "HgN/A
3:00 pm73 °FBroken clouds.3 mph78%29.98 "HgN/A
2:00 pm72 °FLight rain. More clouds than sun.6 mph78%30.01 "Hg6 mi
1:00 pm70 °FMore clouds than sun.5 mph83%30.04 "HgN/A
Weather by CustomWeather, © 2017

See weather overviewHow to use our weather pages